Year,Month,Day,Hour,Minute,Value (Times are PST for windgust in km/hr)
2009,03,03,00,00,3.20
2009,03,03,00,01,4.80
2009,03,03,00,02,4.80
2009,03,03,00,03,3.20
2009,03,03,00,04,1.60
2009,03,03,00,05,1.60
2009,03,03,00,06,3.20
2009,03,03,00,07,4.80
2009,03,03,00,08,6.40
2009,03,03,00,09,4.80
2009,03,03,00,10,4.80
2009,03,03,00,11,6.40
2009,03,03,00,12,0.00
2009,03,03,00,13,1.60
2009,03,03,00,14,1.60
2009,03,03,00,15,1.60
2009,03,03,00,16,3.20
2009,03,03,00,17,3.20
2009,03,03,00,18,1.60
2009,03,03,00,19,3.20
2009,03,03,00,20,6.40
2009,03,03,00,21,1.60
2009,03,03,00,22,1.60
2009,03,03,00,23,1.60
2009,03,03,00,24,4.80
2009,03,03,00,25,6.40
2009,03,03,00,26,6.40
2009,03,03,00,27,6.40
2009,03,03,00,28,6.40
2009,03,03,00,29,6.40
2009,03,03,00,30,8.10
2009,03,03,00,31,6.40
2009,03,03,00,32,4.80
2009,03,03,00,33,6.40
2009,03,03,00,34,8.10
2009,03,03,00,35,8.10
2009,03,03,00,36,4.80
2009,03,03,00,37,4.80
2009,03,03,00,38,3.20
2009,03,03,00,39,4.80
2009,03,03,00,40,3.20
2009,03,03,00,41,1.60
2009,03,03,00,42,1.60
2009,03,03,00,43,1.60
2009,03,03,00,44,1.60
2009,03,03,00,45,0.00
2009,03,03,00,46,3.20
2009,03,03,00,47,4.80
2009,03,03,00,48,4.80
2009,03,03,00,49,4.80
2009,03,03,00,50,6.40
2009,03,03,00,51,6.40
2009,03,03,00,52,4.80
2009,03,03,00,53,8.10
2009,03,03,00,54,6.40
2009,03,03,00,55,4.80
2009,03,03,00,56,6.40
2009,03,03,00,57,8.10
2009,03,03,00,58,8.10
2009,03,03,00,59,4.80
2009,03,03,01,00,8.10
2009,03,03,01,01,9.60
2009,03,03,01,02,9.60
2009,03,03,01,03,6.40
2009,03,03,01,04,6.40
2009,03,03,01,05,9.60
2009,03,03,01,06,4.80
2009,03,03,01,07,4.80
2009,03,03,01,08,6.40
2009,03,03,01,09,8.10
2009,03,03,01,10,9.60
2009,03,03,01,11,4.80
2009,03,03,01,12,4.80
2009,03,03,01,13,8.10
2009,03,03,01,14,11.30
2009,03,03,01,15,9.60
2009,03,03,01,16,9.60
2009,03,03,01,17,8.10
2009,03,03,01,18,11.30
2009,03,03,01,19,9.60
2009,03,03,01,20,11.30
2009,03,03,01,21,11.30
2009,03,03,01,22,9.60
2009,03,03,01,23,12.90
2009,03,03,01,24,11.30
2009,03,03,01,25,11.30
2009,03,03,01,26,8.10
2009,03,03,01,27,9.60
2009,03,03,01,28,8.10
2009,03,03,01,29,8.10
2009,03,03,01,30,9.60
2009,03,03,01,31,8.10
2009,03,03,01,32,8.10
2009,03,03,01,33,8.10
2009,03,03,01,34,9.60
2009,03,03,01,35,8.10
2009,03,03,01,36,8.10
2009,03,03,01,37,8.10
2009,03,03,01,38,8.10
2009,03,03,01,39,8.10
2009,03,03,01,40,6.40
2009,03,03,01,41,6.40
2009,03,03,01,42,6.40
2009,03,03,01,43,4.80
2009,03,03,01,44,3.20
2009,03,03,01,45,6.40
2009,03,03,01,46,6.40
2009,03,03,01,47,6.40
2009,03,03,01,48,8.10
2009,03,03,01,49,8.10
2009,03,03,01,50,8.10
2009,03,03,01,51,6.40
2009,03,03,01,52,6.40
2009,03,03,01,53,8.10
2009,03,03,01,54,6.40
2009,03,03,01,55,6.40
2009,03,03,01,56,8.10
2009,03,03,01,57,6.40
2009,03,03,01,58,8.10
2009,03,03,01,59,9.60
2009,03,03,02,00,9.60
2009,03,03,02,01,8.10
2009,03,03,02,02,8.10
2009,03,03,02,03,8.10
2009,03,03,02,04,8.10
2009,03,03,02,05,14.50
2009,03,03,02,06,11.30
2009,03,03,02,07,9.60
2009,03,03,02,08,9.60
2009,03,03,02,09,11.30
2009,03,03,02,10,8.10
2009,03,03,02,11,8.10
2009,03,03,02,12,4.80
2009,03,03,02,13,8.10
2009,03,03,02,14,6.40
2009,03,03,02,15,9.60
2009,03,03,02,16,8.10
2009,03,03,02,17,8.10
2009,03,03,02,18,6.40
2009,03,03,02,19,9.60
2009,03,03,02,20,9.60
2009,03,03,02,21,8.10
2009,03,03,02,22,6.40
2009,03,03,02,23,8.10
2009,03,03,02,24,9.60
2009,03,03,02,25,11.30
2009,03,03,02,26,11.30
2009,03,03,02,27,9.60
2009,03,03,02,28,8.10
2009,03,03,02,29,6.40
2009,03,03,02,30,8.10
2009,03,03,02,31,9.60
2009,03,03,02,32,6.40
2009,03,03,02,33,9.60
2009,03,03,02,34,6.40
2009,03,03,02,35,4.80
2009,03,03,02,36,3.20
2009,03,03,02,37,8.10
2009,03,03,02,38,4.80
2009,03,03,02,39,6.40
2009,03,03,02,40,8.10
2009,03,03,02,41,6.40
2009,03,03,02,42,6.40
2009,03,03,02,43,6.40
2009,03,03,02,44,6.40
2009,03,03,02,45,6.40
2009,03,03,02,46,4.80
2009,03,03,02,47,6.40
2009,03,03,02,48,6.40
2009,03,03,02,49,4.80
2009,03,03,02,50,3.20
2009,03,03,02,51,3.20
2009,03,03,02,52,1.60
2009,03,03,02,53,8.10
2009,03,03,02,54,6.40
2009,03,03,02,55,8.10
2009,03,03,02,56,4.80
2009,03,03,02,57,8.10
2009,03,03,02,58,9.60
2009,03,03,02,59,6.40
2009,03,03,03,00,8.10
2009,03,03,03,01,8.10
2009,03,03,03,02,9.60
2009,03,03,03,03,8.10
2009,03,03,03,04,9.60
2009,03,03,03,05,9.60
2009,03,03,03,06,9.60
2009,03,03,03,07,9.60
2009,03,03,03,08,9.60
2009,03,03,03,09,8.10
2009,03,03,03,10,9.60
2009,03,03,03,11,11.30
2009,03,03,03,12,8.10
2009,03,03,03,13,6.40
2009,03,03,03,14,6.40
2009,03,03,03,15,8.10
2009,03,03,03,16,8.10
2009,03,03,03,17,8.10
2009,03,03,03,18,8.10
2009,03,03,03,19,4.80
2009,03,03,03,20,4.80
2009,03,03,03,21,6.40
2009,03,03,03,22,6.40
2009,03,03,03,23,6.40
2009,03,03,03,24,6.40
2009,03,03,03,25,8.10
2009,03,03,03,26,6.40
2009,03,03,03,27,8.10
2009,03,03,03,28,8.10
2009,03,03,03,29,6.40
2009,03,03,03,30,1.60
2009,03,03,03,31,8.10
2009,03,03,03,32,11.30
2009,03,03,03,33,8.10
2009,03,03,03,34,8.10
2009,03,03,03,35,11.30
2009,03,03,03,36,9.60
2009,03,03,03,37,8.10
2009,03,03,03,38,9.60
2009,03,03,03,39,8.10
2009,03,03,03,40,11.30
2009,03,03,03,41,6.40
2009,03,03,03,42,8.10
2009,03,03,03,43,8.10
2009,03,03,03,44,8.10
2009,03,03,03,45,4.80
2009,03,03,03,46,6.40
2009,03,03,03,47,9.60
2009,03,03,03,48,4.80
2009,03,03,03,49,9.60
2009,03,03,03,50,6.40
2009,03,03,03,51,8.10
2009,03,03,03,52,9.60
2009,03,03,03,53,9.60
2009,03,03,03,54,8.10
2009,03,03,03,55,8.10
2009,03,03,03,56,8.10
2009,03,03,03,57,6.40
2009,03,03,03,58,8.10
2009,03,03,03,59,8.10
2009,03,03,04,00,8.10
2009,03,03,04,01,8.10
2009,03,03,04,02,9.60
2009,03,03,04,03,11.30
2009,03,03,04,04,9.60
2009,03,03,04,05,11.30
2009,03,03,04,06,11.30
2009,03,03,04,07,11.30
2009,03,03,04,08,8.10
2009,03,03,04,09,11.30
2009,03,03,04,10,11.30
2009,03,03,04,11,9.60
2009,03,03,04,12,8.10
2009,03,03,04,13,11.30
2009,03,03,04,14,11.30
2009,03,03,04,15,9.60
2009,03,03,04,16,8.10
2009,03,03,04,17,11.30
2009,03,03,04,18,11.30
2009,03,03,04,19,8.10
2009,03,03,04,20,8.10
2009,03,03,04,21,9.60
2009,03,03,04,22,8.10
2009,03,03,04,23,6.40
2009,03,03,04,24,8.10
2009,03,03,04,25,9.60
2009,03,03,04,26,4.80
2009,03,03,04,27,8.10
2009,03,03,04,28,8.10
2009,03,03,04,29,6.40
2009,03,03,04,30,8.10
2009,03,03,04,31,9.60
2009,03,03,04,32,6.40
2009,03,03,04,33,11.30
2009,03,03,04,34,8.10
2009,03,03,04,35,9.60
2009,03,03,04,36,9.60
2009,03,03,04,37,9.60
2009,03,03,04,38,8.10
2009,03,03,04,39,8.10
2009,03,03,04,40,9.60
2009,03,03,04,41,8.10
2009,03,03,04,42,8.10
2009,03,03,04,43,6.40
2009,03,03,04,44,6.40
2009,03,03,04,45,11.30
2009,03,03,04,46,11.30
2009,03,03,04,47,9.60
2009,03,03,04,48,9.60
2009,03,03,04,49,6.40
2009,03,03,04,50,11.30
2009,03,03,04,51,11.30
2009,03,03,04,52,16.10
2009,03,03,04,53,17.70
2009,03,03,04,54,17.70
2009,03,03,04,55,16.10
2009,03,03,04,56,11.30
2009,03,03,04,57,11.30
2009,03,03,04,58,14.50
2009,03,03,04,59,14.50
2009,03,03,05,00,20.90
2009,03,03,05,01,11.30
2009,03,03,05,02,17.70
2009,03,03,05,03,19.30
2009,03,03,05,04,16.10
2009,03,03,05,05,8.10
2009,03,03,05,06,12.90
2009,03,03,05,07,6.40
2009,03,03,05,08,11.30
2009,03,03,05,09,8.10
2009,03,03,05,10,9.60
2009,03,03,05,11,9.60
2009,03,03,05,12,4.80
2009,03,03,05,13,9.60
2009,03,03,05,14,6.40
2009,03,03,05,15,17.70
2009,03,03,05,16,9.60
2009,03,03,05,17,9.60
2009,03,03,05,18,11.30
2009,03,03,05,19,11.30
2009,03,03,05,20,9.60
2009,03,03,05,21,14.50
2009,03,03,05,22,9.60
2009,03,03,05,23,4.80
2009,03,03,05,24,4.80
2009,03,03,05,25,6.40
2009,03,03,05,26,6.40
2009,03,03,05,27,3.20
2009,03,03,05,28,3.20
2009,03,03,05,29,4.80
2009,03,03,05,30,6.40
2009,03,03,05,31,8.10
2009,03,03,05,32,8.10
2009,03,03,05,33,3.20
2009,03,03,05,34,8.10
2009,03,03,05,35,8.10
2009,03,03,05,36,6.40
2009,03,03,05,37,3.20
2009,03,03,05,38,3.20
2009,03,03,05,39,0.00
2009,03,03,05,40,0.00
2009,03,03,05,41,1.60
2009,03,03,05,42,6.40
2009,03,03,05,43,11.30
2009,03,03,05,44,9.60
2009,03,03,05,45,8.10
2009,03,03,05,46,8.10
2009,03,03,05,47,9.60
2009,03,03,05,48,6.40
2009,03,03,05,49,8.10
2009,03,03,05,50,8.10
2009,03,03,05,51,1.60
2009,03,03,05,52,3.20
2009,03,03,05,53,1.60
2009,03,03,05,54,4.80
2009,03,03,05,55,8.10
2009,03,03,05,56,8.10
2009,03,03,05,57,6.40
2009,03,03,05,58,4.80
2009,03,03,05,59,6.40
2009,03,03,06,00,3.20
2009,03,03,06,01,1.60
2009,03,03,06,02,1.60
2009,03,03,06,03,8.10
2009,03,03,06,04,8.10
2009,03,03,06,05,4.80
2009,03,03,06,06,4.80
2009,03,03,06,07,3.20
2009,03,03,06,08,6.40
2009,03,03,06,09,6.40
2009,03,03,06,10,6.40
2009,03,03,06,11,6.40
2009,03,03,06,12,4.80
2009,03,03,06,13,8.10
2009,03,03,06,14,9.60
2009,03,03,06,15,8.10
2009,03,03,06,16,8.10
2009,03,03,06,17,6.40
2009,03,03,06,18,8.10
2009,03,03,06,19,4.80
2009,03,03,06,20,0.00
2009,03,03,06,21,3.20
2009,03,03,06,22,6.40
2009,03,03,06,23,9.60
2009,03,03,06,24,8.10
2009,03,03,06,25,4.80
2009,03,03,06,26,4.80
2009,03,03,06,27,4.80
2009,03,03,06,28,1.60
2009,03,03,06,29,3.20
2009,03,03,06,30,3.20
2009,03,03,06,31,1.60
2009,03,03,06,32,1.60
2009,03,03,06,33,1.60
2009,03,03,06,34,0.00
2009,03,03,06,35,1.60
2009,03,03,06,36,1.60
2009,03,03,06,37,3.20
2009,03,03,06,38,1.60
2009,03,03,06,39,0.00
2009,03,03,06,40,0.00
2009,03,03,06,41,1.60
2009,03,03,06,42,1.60
2009,03,03,06,43,1.60
2009,03,03,06,44,1.60
2009,03,03,06,45,0.00
2009,03,03,06,46,0.00
2009,03,03,06,47,1.60
2009,03,03,06,48,3.20
2009,03,03,06,49,3.20
2009,03,03,06,50,3.20
2009,03,03,06,51,3.20
2009,03,03,06,52,0.00
2009,03,03,06,53,1.60
2009,03,03,06,54,3.20
2009,03,03,06,55,3.20
2009,03,03,06,56,1.60
2009,03,03,06,57,0.00
2009,03,03,06,58,0.00
2009,03,03,06,59,0.00
2009,03,03,07,00,0.00
2009,03,03,07,01,1.60
2009,03,03,07,02,3.20
2009,03,03,07,03,1.60
2009,03,03,07,04,0.00
2009,03,03,07,05,0.00
2009,03,03,07,06,0.00
2009,03,03,07,07,0.00
2009,03,03,07,08,0.00
2009,03,03,07,09,0.00
2009,03,03,07,10,1.60
2009,03,03,07,11,0.00
2009,03,03,07,12,0.00
2009,03,03,07,13,1.60
2009,03,03,07,14,1.60
2009,03,03,07,15,1.60
2009,03,03,07,16,1.60
2009,03,03,07,17,1.60
2009,03,03,07,18,1.60
2009,03,03,07,19,3.20
2009,03,03,07,20,3.20
2009,03,03,07,21,0.00
2009,03,03,07,22,0.00
2009,03,03,07,23,1.60
2009,03,03,07,24,1.60
2009,03,03,07,25,1.60
2009,03,03,07,26,3.20
2009,03,03,07,27,1.60
2009,03,03,07,28,1.60
2009,03,03,07,29,1.60
2009,03,03,07,30,1.60
2009,03,03,07,31,0.00
2009,03,03,07,32,0.00
2009,03,03,07,33,1.60
2009,03,03,07,34,0.00
2009,03,03,07,35,0.00
2009,03,03,07,36,1.60
2009,03,03,07,37,1.60
2009,03,03,07,38,1.60
2009,03,03,07,39,3.20
2009,03,03,07,40,1.60
2009,03,03,07,41,3.20
2009,03,03,07,42,1.60
2009,03,03,07,43,3.20
2009,03,03,07,44,3.20
2009,03,03,07,45,4.80
2009,03,03,07,46,3.20
2009,03,03,07,47,3.20
2009,03,03,07,48,1.60
2009,03,03,07,49,3.20
2009,03,03,07,50,4.80
2009,03,03,07,51,8.10
2009,03,03,07,52,8.10
2009,03,03,07,53,8.10
2009,03,03,07,54,11.30
2009,03,03,07,55,17.70
2009,03,03,07,56,16.10
2009,03,03,07,57,19.30
2009,03,03,07,58,16.10
2009,03,03,07,59,14.50
2009,03,03,08,00,14.50
2009,03,03,08,01,14.50
2009,03,03,08,02,16.10
2009,03,03,08,03,6.40
2009,03,03,08,04,11.30
2009,03,03,08,05,6.40
2009,03,03,08,06,6.40
2009,03,03,08,07,11.30
2009,03,03,08,08,8.10
2009,03,03,08,09,9.60
2009,03,03,08,10,6.40
2009,03,03,08,11,8.10
2009,03,03,08,12,6.40
2009,03,03,08,13,4.80
2009,03,03,08,14,8.10
2009,03,03,08,15,9.60
2009,03,03,08,16,6.40
2009,03,03,08,17,1.60
2009,03,03,08,18,6.40
2009,03,03,08,19,1.60
2009,03,03,08,20,3.20
2009,03,03,08,21,1.60
2009,03,03,08,22,4.80
2009,03,03,08,23,6.40
2009,03,03,08,24,8.10
2009,03,03,08,25,6.40
2009,03,03,08,26,8.10
2009,03,03,08,27,6.40
2009,03,03,08,28,8.10
2009,03,03,08,29,4.80
2009,03,03,08,30,3.20
2009,03,03,08,31,11.30
2009,03,03,08,32,8.10
2009,03,03,08,33,3.20
2009,03,03,08,34,3.20
2009,03,03,08,35,6.40
2009,03,03,08,36,6.40
2009,03,03,08,37,3.20
2009,03,03,08,38,4.80
2009,03,03,08,39,1.60
2009,03,03,08,40,1.60
2009,03,03,08,41,4.80
2009,03,03,08,42,3.20
2009,03,03,08,43,3.20
2009,03,03,08,44,6.40
2009,03,03,08,45,4.80
2009,03,03,08,46,4.80
2009,03,03,08,47,4.80
2009,03,03,08,48,4.80
2009,03,03,08,49,1.60
2009,03,03,08,50,6.40
2009,03,03,08,51,4.80
2009,03,03,08,52,1.60
2009,03,03,08,53,1.60
2009,03,03,08,54,3.20
2009,03,03,08,55,0.00
2009,03,03,08,56,6.40
2009,03,03,08,57,6.40
2009,03,03,08,58,3.20
2009,03,03,08,59,6.40
2009,03,03,09,00,6.40
2009,03,03,09,01,8.10
2009,03,03,09,02,6.40
2009,03,03,09,03,1.60
2009,03,03,09,04,3.20
2009,03,03,09,05,3.20
2009,03,03,09,06,4.80
2009,03,03,09,07,4.80
2009,03,03,09,08,6.40
2009,03,03,09,09,4.80
2009,03,03,09,10,4.80
2009,03,03,09,11,1.60
2009,03,03,09,12,3.20
2009,03,03,09,13,1.60
2009,03,03,09,14,3.20
2009,03,03,09,15,9.60
2009,03,03,09,16,9.60
2009,03,03,09,17,4.80
2009,03,03,09,18,3.20
2009,03,03,09,19,3.20
2009,03,03,09,20,6.40
2009,03,03,09,21,11.30
2009,03,03,09,22,3.20
2009,03,03,09,23,0.00
2009,03,03,09,24,0.00
2009,03,03,09,25,1.60
2009,03,03,09,26,3.20
2009,03,03,09,27,0.00
2009,03,03,09,28,3.20
2009,03,03,09,29,1.60
2009,03,03,09,30,1.60
2009,03,03,09,31,4.80
2009,03,03,09,32,11.30
2009,03,03,09,33,6.40
2009,03,03,09,34,1.60
2009,03,03,09,35,4.80
2009,03,03,09,36,4.80
2009,03,03,09,37,3.20
2009,03,03,09,38,3.20
2009,03,03,09,39,3.20
2009,03,03,09,40,6.40
2009,03,03,09,41,6.40
2009,03,03,09,42,6.40
2009,03,03,09,43,6.40
2009,03,03,09,44,8.10
2009,03,03,09,45,3.20
2009,03,03,09,46,6.40
2009,03,03,09,47,11.30
2009,03,03,09,48,6.40
2009,03,03,09,49,8.10
2009,03,03,09,50,4.80
2009,03,03,09,51,4.80
2009,03,03,09,52,8.10
2009,03,03,09,53,8.10
2009,03,03,09,54,8.10
2009,03,03,09,55,4.80
2009,03,03,09,56,1.60
2009,03,03,09,57,8.10
2009,03,03,09,58,11.30
2009,03,03,09,59,3.20
2009,03,03,10,00,4.80
2009,03,03,10,01,6.40
2009,03,03,10,02,6.40
2009,03,03,10,03,4.80
2009,03,03,10,04,4.80
2009,03,03,10,05,6.40
2009,03,03,10,06,8.10
2009,03,03,10,07,8.10
2009,03,03,10,08,8.10
2009,03,03,10,09,6.40
2009,03,03,10,10,4.80
2009,03,03,10,11,3.20
2009,03,03,10,12,4.80
2009,03,03,10,13,4.80
2009,03,03,10,14,4.80
2009,03,03,10,15,4.80
2009,03,03,10,16,6.40
2009,03,03,10,17,8.10
2009,03,03,10,18,6.40
2009,03,03,10,19,6.40
2009,03,03,10,20,4.80
2009,03,03,10,21,3.20
2009,03,03,10,22,4.80
2009,03,03,10,23,4.80
2009,03,03,10,24,8.10
2009,03,03,10,25,4.80
2009,03,03,10,26,6.40
2009,03,03,10,27,6.40
2009,03,03,10,28,4.80
2009,03,03,10,29,3.20
2009,03,03,10,30,1.60
2009,03,03,10,31,4.80
2009,03,03,10,32,6.40
2009,03,03,10,33,3.20
2009,03,03,10,34,4.80
2009,03,03,10,35,4.80
2009,03,03,10,36,3.20
2009,03,03,10,37,1.60
2009,03,03,10,38,4.80
2009,03,03,10,39,3.20
2009,03,03,10,40,6.40
2009,03,03,10,41,6.40
2009,03,03,10,42,4.80
2009,03,03,10,43,14.50
2009,03,03,10,44,4.80
2009,03,03,10,45,6.40
2009,03,03,10,46,6.40
2009,03,03,10,47,6.40
2009,03,03,10,48,8.10
2009,03,03,10,49,9.60
2009,03,03,10,50,6.40
2009,03,03,10,51,6.40
2009,03,03,10,52,8.10
2009,03,03,10,53,8.10
2009,03,03,10,54,4.80
2009,03,03,10,55,6.40
2009,03,03,10,56,8.10
2009,03,03,10,57,4.80
2009,03,03,10,58,8.10
2009,03,03,10,59,6.40
2009,03,03,11,00,8.10
2009,03,03,11,01,4.80
2009,03,03,11,02,6.40
2009,03,03,11,03,6.40
2009,03,03,11,04,3.20
2009,03,03,11,05,3.20
2009,03,03,11,06,3.20
2009,03,03,11,07,3.20
2009,03,03,11,08,3.20
2009,03,03,11,09,4.80
2009,03,03,11,10,4.80
2009,03,03,11,11,6.40
2009,03,03,11,12,9.60
2009,03,03,11,13,8.10
2009,03,03,11,14,9.60
2009,03,03,11,15,6.40
2009,03,03,11,16,6.40
2009,03,03,11,17,4.80
2009,03,03,11,18,6.40
2009,03,03,11,19,4.80
2009,03,03,11,20,6.40
2009,03,03,11,21,1.60
2009,03,03,11,22,1.60
2009,03,03,11,23,0.00
2009,03,03,11,24,3.20
2009,03,03,11,25,4.80
2009,03,03,11,26,6.40
2009,03,03,11,27,6.40
2009,03,03,11,28,4.80
2009,03,03,11,29,4.80
2009,03,03,11,30,6.40
2009,03,03,11,31,4.80
2009,03,03,11,32,6.40
2009,03,03,11,33,9.60
2009,03,03,11,34,8.10
2009,03,03,11,35,3.20
2009,03,03,11,36,3.20
2009,03,03,11,37,8.10
2009,03,03,11,38,6.40
2009,03,03,11,39,9.60
2009,03,03,11,40,6.40
2009,03,03,11,41,9.60
2009,03,03,11,42,4.80
2009,03,03,11,43,6.40
2009,03,03,11,44,9.60
2009,03,03,11,45,8.10
2009,03,03,11,46,9.60
2009,03,03,11,47,8.10
2009,03,03,11,48,4.80
2009,03,03,11,49,6.40
2009,03,03,11,50,9.60
2009,03,03,11,51,8.10
2009,03,03,11,52,9.60
2009,03,03,11,53,6.40
2009,03,03,11,54,6.40
2009,03,03,11,55,6.40
2009,03,03,11,56,9.60
2009,03,03,11,57,11.30
2009,03,03,11,58,20.90
2009,03,03,11,59,17.70
2009,03,03,12,00,8.10
2009,03,03,12,01,16.10
2009,03,03,12,02,16.10
2009,03,03,12,03,11.30
2009,03,03,12,04,12.90
2009,03,03,12,05,11.30
2009,03,03,12,06,6.40
2009,03,03,12,07,16.10
2009,03,03,12,08,11.30
2009,03,03,12,09,14.50
2009,03,03,12,10,16.10
2009,03,03,12,11,11.30
2009,03,03,12,12,9.60
2009,03,03,12,13,9.60
2009,03,03,12,14,9.60
2009,03,03,12,15,4.80
2009,03,03,12,16,6.40
2009,03,03,12,17,9.60
2009,03,03,12,18,11.30
2009,03,03,12,19,11.30
2009,03,03,12,20,8.10
2009,03,03,12,21,8.10
2009,03,03,12,22,6.40
2009,03,03,12,23,4.80
2009,03,03,12,24,4.80
2009,03,03,12,25,8.10
2009,03,03,12,26,14.50
2009,03,03,12,27,3.20
2009,03,03,12,28,6.40
2009,03,03,12,29,4.80
2009,03,03,12,30,4.80
2009,03,03,12,31,8.10
2009,03,03,12,32,11.30
2009,03,03,12,33,8.10
2009,03,03,12,34,9.60
2009,03,03,12,35,16.10
2009,03,03,12,36,6.40
2009,03,03,12,37,8.10
2009,03,03,12,38,4.80
2009,03,03,12,39,6.40
2009,03,03,12,40,6.40
2009,03,03,12,41,6.40
2009,03,03,12,42,8.10
2009,03,03,12,43,6.40
2009,03,03,12,44,8.10
2009,03,03,12,45,11.30
2009,03,03,12,46,6.40
2009,03,03,12,47,6.40
2009,03,03,12,48,6.40
2009,03,03,12,49,16.10
2009,03,03,12,50,14.50
2009,03,03,12,51,14.50
2009,03,03,12,52,8.10
2009,03,03,12,53,9.60
2009,03,03,12,54,14.50
2009,03,03,12,55,11.30
2009,03,03,12,56,14.50
2009,03,03,12,57,8.10
2009,03,03,12,58,6.40
2009,03,03,12,59,8.10
2009,03,03,13,00,14.50
2009,03,03,13,01,11.30
2009,03,03,13,02,16.10
2009,03,03,13,03,8.10
2009,03,03,13,04,9.60
2009,03,03,13,05,11.30
2009,03,03,13,06,14.50
2009,03,03,13,07,9.60
2009,03,03,13,08,8.10
2009,03,03,13,09,16.10
2009,03,03,13,10,14.50
2009,03,03,13,11,9.60
2009,03,03,13,12,16.10
2009,03,03,13,13,11.30
2009,03,03,13,14,16.10
2009,03,03,13,15,6.40
2009,03,03,13,16,12.90
2009,03,03,13,17,9.60
2009,03,03,13,18,9.60
2009,03,03,13,19,11.30
2009,03,03,13,20,9.60
2009,03,03,13,21,12.90
2009,03,03,13,22,16.10
2009,03,03,13,23,8.10
2009,03,03,13,24,17.70
2009,03,03,13,25,11.30
2009,03,03,13,26,11.30
2009,03,03,13,27,9.60
2009,03,03,13,28,17.70
2009,03,03,13,29,14.50
2009,03,03,13,30,9.60
2009,03,03,13,31,9.60
2009,03,03,13,32,1.60
2009,03,03,13,33,11.30
2009,03,03,13,34,8.10
2009,03,03,13,35,11.30
2009,03,03,13,36,11.30
2009,03,03,13,37,16.10
2009,03,03,13,38,9.60
2009,03,03,13,39,9.60
2009,03,03,13,40,14.50
2009,03,03,13,41,8.10
2009,03,03,13,42,14.50
2009,03,03,13,43,8.10
2009,03,03,13,44,12.90
2009,03,03,13,45,11.30
2009,03,03,13,46,11.30
2009,03,03,13,47,17.70
2009,03,03,13,48,9.60
2009,03,03,13,49,8.10
2009,03,03,13,50,9.60
2009,03,03,13,51,3.20
2009,03,03,13,52,6.40
2009,03,03,13,53,9.60
2009,03,03,13,54,14.50
2009,03,03,13,55,4.80
2009,03,03,13,56,8.10
2009,03,03,13,57,17.70
2009,03,03,13,58,9.60
2009,03,03,13,59,11.30
2009,03,03,14,00,6.40
2009,03,03,14,01,6.40
2009,03,03,14,02,8.10
2009,03,03,14,03,1.60
2009,03,03,14,04,8.10
2009,03,03,14,05,8.10
2009,03,03,14,06,8.10
2009,03,03,14,07,9.60
2009,03,03,14,08,9.60
2009,03,03,14,09,19.30
2009,03,03,14,10,17.70
2009,03,03,14,11,14.50
2009,03,03,14,12,11.30
2009,03,03,14,13,17.70
2009,03,03,14,14,8.10
2009,03,03,14,15,9.60
2009,03,03,14,16,9.60
2009,03,03,14,17,9.60
2009,03,03,14,18,19.30
2009,03,03,14,19,12.90
2009,03,03,14,20,6.40
2009,03,03,14,21,9.60
2009,03,03,14,22,11.30
2009,03,03,14,23,8.10
2009,03,03,14,24,3.20
2009,03,03,14,25,0.00
2009,03,03,14,26,4.80
2009,03,03,14,27,8.10
2009,03,03,14,28,9.60
2009,03,03,14,29,8.10
2009,03,03,14,30,14.50
2009,03,03,14,31,8.10
2009,03,03,14,32,9.60
2009,03,03,14,33,12.90
2009,03,03,14,34,11.30
2009,03,03,14,35,24.20
2009,03,03,14,36,11.30
2009,03,03,14,37,8.10
2009,03,03,14,38,6.40
2009,03,03,14,39,6.40
2009,03,03,14,40,9.60
2009,03,03,14,41,8.10
2009,03,03,14,42,9.60
2009,03,03,14,43,4.80
2009,03,03,14,44,11.30
2009,03,03,14,45,11.30
2009,03,03,14,46,6.40
2009,03,03,14,47,16.10
2009,03,03,14,48,9.60
2009,03,03,14,49,3.20
2009,03,03,14,50,14.50
2009,03,03,14,51,6.40
2009,03,03,14,52,11.30
2009,03,03,14,53,17.70
2009,03,03,14,54,14.50
2009,03,03,14,55,8.10
2009,03,03,14,56,16.10
2009,03,03,14,57,6.40
2009,03,03,14,58,14.50
2009,03,03,14,59,9.60
2009,03,03,15,00,14.50
2009,03,03,15,01,8.10
2009,03,03,15,02,8.10
2009,03,03,15,03,6.40
2009,03,03,15,04,4.80
2009,03,03,15,05,16.10
2009,03,03,15,06,14.50
2009,03,03,15,07,8.10
2009,03,03,15,08,8.10
2009,03,03,15,09,11.30
2009,03,03,15,10,8.10
2009,03,03,15,11,14.50
2009,03,03,15,12,11.30
2009,03,03,15,13,16.10
2009,03,03,15,14,11.30
2009,03,03,15,15,6.40
2009,03,03,15,16,16.10
2009,03,03,15,17,9.60
2009,03,03,15,18,16.10
2009,03,03,15,19,4.80
2009,03,03,15,20,8.10
2009,03,03,15,21,8.10
2009,03,03,15,22,3.20
2009,03,03,15,23,6.40
2009,03,03,15,24,16.10
2009,03,03,15,25,14.50
2009,03,03,15,26,11.30
2009,03,03,15,27,11.30
2009,03,03,15,28,9.60
2009,03,03,15,29,11.30
2009,03,03,15,30,9.60
2009,03,03,15,31,11.30
2009,03,03,15,32,8.10
2009,03,03,15,33,6.40
2009,03,03,15,34,6.40
2009,03,03,15,35,9.60
2009,03,03,15,36,6.40
2009,03,03,15,37,6.40
2009,03,03,15,38,8.10
2009,03,03,15,39,12.90
2009,03,03,15,40,14.50
2009,03,03,15,41,9.60
2009,03,03,15,42,8.10
2009,03,03,15,43,8.10
2009,03,03,15,44,8.10
2009,03,03,15,45,9.60
2009,03,03,15,46,9.60
2009,03,03,15,47,8.10
2009,03,03,15,48,8.10
2009,03,03,15,49,4.80
2009,03,03,15,50,11.30
2009,03,03,15,51,6.40
2009,03,03,15,52,8.10
2009,03,03,15,53,11.30
2009,03,03,15,54,9.60
2009,03,03,15,55,6.40
2009,03,03,15,56,8.10
2009,03,03,15,57,4.80
2009,03,03,15,58,1.60
2009,03,03,15,59,8.10
2009,03,03,16,00,3.20
2009,03,03,16,01,11.30
2009,03,03,16,02,4.80
2009,03,03,16,03,11.30
2009,03,03,16,04,8.10
2009,03,03,16,05,6.40
2009,03,03,16,06,9.60
2009,03,03,16,07,8.10
2009,03,03,16,08,11.30
2009,03,03,16,09,6.40
2009,03,03,16,10,1.60
2009,03,03,16,11,3.20
2009,03,03,16,12,16.10
2009,03,03,16,13,11.30
2009,03,03,16,14,11.30
2009,03,03,16,15,6.40
2009,03,03,16,16,4.80
2009,03,03,16,17,4.80
2009,03,03,16,18,3.20
2009,03,03,16,19,1.60
2009,03,03,16,20,1.60
2009,03,03,16,21,3.20
2009,03,03,16,22,4.80
2009,03,03,16,23,8.10
2009,03,03,16,24,6.40
2009,03,03,16,25,11.30
2009,03,03,16,26,6.40
2009,03,03,16,27,16.10
2009,03,03,16,28,6.40
2009,03,03,16,29,8.10
2009,03,03,16,30,6.40
2009,03,03,16,31,9.60
2009,03,03,16,32,9.60
2009,03,03,16,33,17.70
2009,03,03,16,34,9.60
2009,03,03,16,35,8.10
2009,03,03,16,36,4.80
2009,03,03,16,37,8.10
2009,03,03,16,38,9.60
2009,03,03,16,39,11.30
2009,03,03,16,40,9.60
2009,03,03,16,41,6.40
2009,03,03,16,42,8.10
2009,03,03,16,43,4.80
2009,03,03,16,44,8.10
2009,03,03,16,45,6.40
2009,03,03,16,46,14.50
2009,03,03,16,47,9.60
2009,03,03,16,48,9.60
2009,03,03,16,49,6.40
2009,03,03,16,50,16.10
2009,03,03,16,51,8.10
2009,03,03,16,52,11.30
2009,03,03,16,53,8.10
2009,03,03,16,54,9.60
2009,03,03,16,55,4.80
2009,03,03,16,56,3.20
2009,03,03,16,57,6.40
2009,03,03,16,58,11.30
2009,03,03,16,59,8.10
2009,03,03,17,00,4.80
2009,03,03,17,01,3.20
2009,03,03,17,02,6.40
2009,03,03,17,03,6.40
2009,03,03,17,04,6.40
2009,03,03,17,05,4.80
2009,03,03,17,06,6.40
2009,03,03,17,07,6.40
2009,03,03,17,08,6.40
2009,03,03,17,09,6.40
2009,03,03,17,10,6.40
2009,03,03,17,11,6.40
2009,03,03,17,12,1.60
2009,03,03,17,13,9.60
2009,03,03,17,14,8.10
2009,03,03,17,15,6.40
2009,03,03,17,16,12.90
2009,03,03,17,17,17.70
2009,03,03,17,18,6.40
2009,03,03,17,19,16.10
2009,03,03,17,20,14.50
2009,03,03,17,21,8.10
2009,03,03,17,22,6.40
2009,03,03,17,23,3.20
2009,03,03,17,24,8.10
2009,03,03,17,25,4.80
2009,03,03,17,26,6.40
2009,03,03,17,27,9.60
2009,03,03,17,28,9.60
2009,03,03,17,29,9.60
2009,03,03,17,30,6.40
2009,03,03,17,31,3.20
2009,03,03,17,32,11.30
2009,03,03,17,33,9.60
2009,03,03,17,34,1.60
2009,03,03,17,35,8.10
2009,03,03,17,36,9.60
2009,03,03,17,37,4.80
2009,03,03,17,38,3.20
2009,03,03,17,39,11.30
2009,03,03,17,40,6.40
2009,03,03,17,41,4.80
2009,03,03,17,42,3.20
2009,03,03,17,43,6.40
2009,03,03,17,44,9.60
2009,03,03,17,45,9.60
2009,03,03,17,46,8.10
2009,03,03,17,47,3.20
2009,03,03,17,48,9.60
2009,03,03,17,49,4.80
2009,03,03,17,50,4.80
2009,03,03,17,51,4.80
2009,03,03,17,52,1.60
2009,03,03,17,53,4.80
2009,03,03,17,54,4.80
2009,03,03,17,55,6.40
2009,03,03,17,56,9.60
2009,03,03,17,57,8.10
2009,03,03,17,58,3.20